Location: Unspecified
(0.0000°N, 0.0000°E)
Time: 13:57:43
(UTC+00:00)

Amateur Radio Satellites - All Passes

Search period start: 29 April 2016 13:27
Search period end: 30 April 2016 13:27
Location: Unspecified, 0.0000°N, 0.0000°E

Satellite Date Start Highest point End Downlink Frequencies (MHz)
Time Altitude Azimuth
ITUPSAT 1 29 Apr 13:36:18 13:40:51 47° 102° (ESE) 13:45:28 437.325
Gurwin Techsat 1B 29 Apr 13:41:23 13:46:41 72° 78° (ENE) 13:51:58 435.225
O/OREOS (USA 219) 29 Apr 13:44:38 13:49:09 58° 104° (ESE) 13:53:39 437.305
SWISSCUBE 29 Apr 13:47:48 13:52:33 80° 103° (ESE) 13:57:21 437.505
ITAMSAT 1 29 Apr 13:51:09 13:55:40 30° 77° (ENE) 14:00:07 435.822/435.867
Cosmos 2499 29 Apr 13:59:29 14:05:48 24° 266° (W) 14:12:25 435.465 / 435.565
CUSAT 1 29 Apr 14:00:29 14:01:17 11° 95° (E) 14:02:05 437.405
JAS-2 29 Apr 14:03:30 14:06:02 14° 258° (WSW) 14:08:38 435.910
KKS-1 29 Apr 14:21:28 14:23:14 12° 103° (ESE) 14:25:00 437.445
BEESAT 29 Apr 14:21:48 14:26:15 41° 282° (WNW) 14:30:44 436.000
JUGNU 29 Apr 14:22:04 14:27:57 81° 159° (SSE) 14:33:52 437.505
PCSat 29 Apr 14:22:22 14:27:43 64° 109° (ESE) 14:33:03 145.827
Oscar 19 29 Apr 14:23:45 14:25:15 11° 257° (WSW) 14:26:46 437.125/150
AO-7 29 Apr 14:25:01 14:31:41 27° 73° (ENE) 14:38:17 29.400- 29.500
STARS 29 Apr 14:49:09 14:51:01 13° 103° (ESE) 14:52:54 437.465
SRMSAT 29 Apr 15:13:28 15:19:01 39° 160° (SSE) 15:24:35 437.500
MOZHAYETS 4 29 Apr 15:28:41 15:33:12 62° 102° (ESE) 15:37:45
ITAMSAT 1 29 Apr 15:31:35 15:34:50 17° 257° (WSW) 15:38:05 435.822/435.867
DANDE 29 Apr 15:47:29 15:49:25 17° 273° (W) 15:51:14 436.750
KKS-1 29 Apr 15:55:43 15:59:32 28° 282° (WNW) 16:03:20 437.445
HORYU 2 29 Apr 15:58:59 16:03:13 41° 78° (ENE) 16:07:26 437.375
JUGNU 29 Apr 16:11:39 16:17:03 37° 341° (NNW) 16:22:28 437.505
AO-7 29 Apr 16:16:29 16:24:05 40° 254° (WSW) 16:31:39 29.400- 29.500
STARS 29 Apr 16:23:27 16:27:07 27° 282° (WNW) 16:30:47 437.465
BEESAT 3 29 Apr 16:29:48 16:32:09 15° 112° (ESE) 16:34:29 437.485
ISS 29 Apr 16:48:26 16:51:05 23° 54° (NE) 16:53:44 145.825
SRMSAT 29 Apr 17:02:16 17:08:17 77° 339° (NNW) 17:14:18 437.500
CUBESAT XI-V 29 Apr 17:02:43 17:07:23 69° 102° (ESE) 17:12:05 437.345
Cubesat XI-IV 29 Apr 17:13:04 17:17:16 23° 77° (ENE) 17:21:25 437.490
SO-50 29 Apr 17:22:13 17:26:04 28° 68° (ENE) 17:29:50 436.795
NOAA 15 29 Apr 17:24:35 17:29:43 56° 77° (ENE) 17:34:50 137.62
M-CUBED/EXP-1 PRIME 29 Apr 17:26:44 17:27:39 11° 73° (ENE) 17:28:35 437.505
AUBIESAT-1 29 Apr 17:46:58 17:49:50 17° 73° (ENE) 17:52:45 437.475
GOMX 1 29 Apr 17:47:02 17:50:15 19° 77° (ENE) 17:53:36 467.674
NOAA 18 29 Apr 17:47:53 17:53:27 89° 256° (WSW) 17:59:00 137.9125
BRITE-PL 29 Apr 17:52:14 17:56:26 61° 78° (ENE) 18:00:53 437.365/2234.400
YUBILEINY 29 Apr 17:53:11 18:01:40 52° 93° (E) 18:10:02 435.215
LilacSat-2 29 Apr 18:02:51 18:06:44 77° 259° (W) 18:10:37 437.200
JUGNU 29 Apr 18:02:53 18:06:31 16° 347° (NNW) 18:10:11 437.505
DOVE 4 29 Apr 18:03:52 18:06:03 13° 77° (ENE) 18:08:17 437.250
BEESAT 2 29 Apr 18:05:37 18:09:17 36° 292° (WNW) 18:12:56 435.950
BEESAT 3 29 Apr 18:06:57 18:09:36 17° 292° (WNW) 18:12:16 437.485
Cosmos 2491 29 Apr 18:07:11 18:15:55 74° 87° (E) 18:24:37 435.465 / 435.565
CUTE-I 29 Apr 18:08:39 18:14:00 74° 257° (WSW) 18:19:19 437.470
STRAND 1 29 Apr 18:22:53 18:27:30 35° 103° (ESE) 18:32:09 437.568
ISS 29 Apr 18:26:50 18:27:21 10° 234° (SW) 18:27:52 145.825
RS-15 29 Apr 18:42:35 18:49:26 18° 112° (ESE) 18:56:18 29.354- 29.394
SRMSAT 29 Apr 18:52:28 18:57:37 29° 341° (NNW) 19:02:46 437.500
Cubesat XI-IV 29 Apr 18:52:55 18:57:03 23° 257° (WSW) 19:01:11 437.490
M-CUBED/EXP-1 PRIME 29 Apr 18:57:43 19:01:49 38° 255° (WSW) 19:06:07 437.505
HO-68 29 Apr 18:59:48 19:05:46 29° 75° (ENE) 19:11:41 435.675
PHONESAT 2.4 29 Apr 19:00:26 19:03:30 48° 42° (NE) 19:06:34 2401.200-2431.200
SO-50 29 Apr 19:04:21 19:06:15 12° 248° (WSW) 19:08:08 436.795
AIST 2 29 Apr 19:05:14 19:09:05 38° 112° (ESE) 19:12:55 435.215
CINEMA 3 29 Apr 19:13:47 19:17:52 28° 78° (ENE) 19:22:03 145.822/145.860
CUTE 1.7 + AOD 2 29 Apr 19:15:26 19:18:59 25° 79° (ENE) 19:22:28 437.475
AUBIESAT-1 29 Apr 19:20:26 19:24:01 24° 255° (WSW) 19:27:42 437.475
GOMX 1 29 Apr 19:24:57 19:28:05 19° 260° (W) 19:31:22 467.674
DOVE 4 29 Apr 19:39:23 19:43:25 31° 259° (W) 19:47:39 437.250
SEEDS 29 Apr 19:49:08 19:53:16 54° 79° (ENE) 19:57:21 437.485
YUBILEINY 29 Apr 19:52:17 19:58:02 19° 273° (W) 20:03:47 435.215
JUGNU 29 Apr 19:56:06 19:56:32 10° 356° (N) 19:57:00 437.505
Cosmos 2504 29 Apr 19:58:55 20:06:53 84° 273° (W) 20:14:17 435.465 / 435.565
COMPASS 1 29 Apr 19:59:43 20:03:46 50° 78° (ENE) 20:07:46 437.405
STRAND 1 29 Apr 20:03:54 20:06:24 14° 283° (WNW) 20:08:55 437.568
Cosmos 2491 29 Apr 20:09:54 20:12:21 11° 267° (W) 20:14:49 435.465 / 435.565
PRISM 29 Apr 20:10:27 20:14:32 57° 282° (WNW) 20:18:39 437.425
CANX-2 29 Apr 20:17:17 20:21:03 30° 258° (WSW) 20:24:48 2200.000
Oscar 11 29 Apr 20:21:32 20:25:02 24° 79° (ENE) 20:28:30 145.826/435.025
CUBEBUG 2 29 Apr 20:26:18 20:30:59 67° 79° (ENE) 20:35:42 437.445
UWE-3 29 Apr 20:27:15 20:31:40 43° 79° (ENE) 20:36:05 435.000/436.395/437.385
FUNcube-1 29 Apr 20:27:18 20:30:58 24° 79° (ENE) 20:34:37 145.935
AAUSAT CUBESAT 2 29 Apr 20:34:16 20:38:23 62° 258° (WSW) 20:42:27 437.432
SRMSAT 29 Apr 20:44:24 20:47:26 14° 349° (N) 20:50:26 437.500
DELFI C3 29 Apr 20:45:08 20:47:59 19° 79° (ENE) 20:50:47 145.870
HO-68 29 Apr 20:46:59 20:53:09 31° 255° (WSW) 20:59:18 435.675
RS-15 29 Apr 20:50:35 21:01:20 68° 291° (WNW) 21:12:33 29.354- 29.394
CINEMA 3 29 Apr 20:51:58 20:54:45 15° 259° (W) 20:57:34 145.822/145.860
CUTE 1.7 + AOD 2 29 Apr 20:52:50 20:54:32 12° 258° (WSW) 20:56:14 437.475
ZACube-1 29 Apr 21:06:28 21:11:04 88° 251° (WSW) 21:15:40 437.345
UNISAT 6 29 Apr 21:07:03 21:08:42 12° 102° (ESE) 21:10:20 437.425
HUMSAT D 29 Apr 21:08:57 21:11:34 16° 78° (ENE) 21:14:11 437.325/437.525
TIGRISAT 29 Apr 21:24:22 21:27:32 21° 102° (ESE) 21:30:43 435.000
JUGNU 29 Apr 21:44:55 21:46:46 11° 7° (N) 21:48:38 437.505
ANTELSAT 29 Apr 21:46:54 21:50:59 48° 102° (ESE) 21:55:06 437.575/2403.000
Oscar 11 29 Apr 21:58:40 22:00:53 14° 258° (WSW) 22:03:07 145.826/435.025
FUNcube-1 29 Apr 22:04:08 22:06:56 16° 258° (WSW) 22:09:43 145.935
DELFI C3 29 Apr 22:20:29 22:22:35 14° 258° (WSW) 22:24:41 145.870
QB50P2 29 Apr 22:27:40 22:30:59 23° 102° (ESE) 22:34:19 145.880/145.840
POLYITAN 1 29 Apr 22:29:44 22:33:05 23° 102° (ESE) 22:36:26 437.675
DUCHIFAT 1 29 Apr 22:32:40 22:35:55 22° 102° (ESE) 22:39:10 145.980
POPSAT HIP 1 29 Apr 22:33:16 22:36:44 25° 102° (ESE) 22:40:13 437.405
CUBEBUG 1 29 Apr 22:34:03 22:37:08 19° 78° (ENE) 22:40:12 437.445
QB50P1 29 Apr 22:36:41 22:40:20 29° 102° (ESE) 22:43:59 145.935-145.965
UNISAT 6 29 Apr 22:41:38 22:45:09 25° 282° (WNW) 22:48:40 437.425
HUMSAT D 29 Apr 22:43:43 22:46:56 21° 258° (WSW) 22:50:08 437.325/437.525
AO-85 29 Apr 22:44:09 22:46:57 18° 66° (ENE) 22:49:38 145.980
VELOX 1 29 Apr 22:50:28 22:54:27 34° 78° (ENE) 22:58:27 145.980
AIST 1 29 Apr 22:53:23 22:54:37 11° 94° (E) 22:55:51
50 SAT 29 Apr 22:59:12 23:02:52 60° 79° (E) 23:06:30 437.505
DX 1 29 Apr 23:00:11 23:04:17 41° 78° (ENE) 23:08:21 434.975-435.025
TIGRISAT 29 Apr 23:01:34 23:03:59 15° 282° (WNW) 23:06:24 435.000
NANOSAT C BR1 29 Apr 23:13:04 23:17:15 81° 281° (WNW) 23:21:26 145.865
UKube-1 29 Apr 23:13:28 23:17:38 50° 78° (ENE) 23:21:48 .
AISAT 29 Apr 23:21:34 23:25:58 76° 258° (WSW) 23:30:22 437.250
ESTCUBE 1 29 Apr 23:25:17 23:29:35 47° 258° (WSW) 23:33:52 437.505/2401.250
BUGSAT 1 29 Apr 23:29:24 23:33:28 61° 102° (ESE) 23:37:29 437.445
JUGNU 29 Apr 23:32:12 23:36:39 21° 16° (NNE) 23:41:06 437.505
GONETS M04 29 Apr 23:36:34 23:45:10 56° 93° (E) 23:53:45
JAS-2 29 Apr 23:48:38 23:54:50 26° 102° (ESE) 00:00:42 435.910
SPROUT 29 Apr 23:50:05 23:54:22 70° 78° (ENE) 23:58:39 437.525
QB50P2 30 Apr 00:04:30 00:06:32 13° 282° (WNW) 00:08:34 145.880/145.840
POLYITAN 1 30 Apr 00:06:42 00:08:38 13° 282° (WNW) 00:10:34 437.675
DUCHIFAT 1 30 Apr 00:09:16 00:11:21 14° 282° (WNW) 00:13:27 145.980
CUBEBUG 1 30 Apr 00:10:18 00:13:09 17° 258° (WSW) 00:16:01 437.445
POPSAT HIP 1 30 Apr 00:10:41 00:12:15 12° 282° (WNW) 00:13:49 437.405
QB50P1 30 Apr 00:15:23 00:15:51 10° 282° (WNW) 00:16:19 145.935-145.965
Cosmos 2499 30 Apr 00:16:34 00:23:56 52° 94° (E) 00:30:50 435.465 / 435.565
AO-85 30 Apr 00:24:49 00:27:05 15° 249° (WSW) 00:29:18 145.980
SRMSAT 30 Apr 00:25:24 00:28:04 13° 10° (N) 00:30:43 437.500
AIST 1 30 Apr 00:28:26 00:31:55 25° 274° (W) 00:35:25
TISAT 1 30 Apr 00:37:47 00:42:00 71° 78° (ENE) 00:46:12 437.305
Gurwin Techsat 1B 30 Apr 00:43:07 00:45:27 13° 103° (ESE) 00:47:46 435.225
CUSAT 1 30 Apr 00:56:58 00:58:51 11° 85° (E) 01:00:43 437.405
BEESAT 30 Apr 01:07:19 01:10:44 20° 78° (ENE) 01:14:07 436.000
Oscar 19 30 Apr 01:14:45 01:19:55 75° 282° (WNW) 01:25:04 437.125/150
PCSat 30 Apr 01:18:22 01:20:44 13° 70° (ENE) 01:23:05 145.827
JUGNU 30 Apr 01:20:10 01:25:58 52° 20° (NNE) 01:31:47 437.505
JAS-2 30 Apr 01:32:23 01:39:29 39° 284° (WNW) 01:46:16 435.910
GONETS M04 30 Apr 01:36:13 01:41:35 18° 273° (W) 01:46:58
O/OREOS (USA 219) 30 Apr 01:55:39 02:00:07 80° 257° (WSW) 02:04:35 437.305
ITUPSAT 1 30 Apr 01:58:29 02:03:17 87° 258° (WSW) 02:08:03 437.325
SWISSCUBE 30 Apr 02:10:00 02:14:39 51° 258° (WSW) 02:19:15 437.505
Cosmos 2499 30 Apr 02:12:55 02:16:31 14° 272° (W) 02:20:03 435.465 / 435.565
SRMSAT 30 Apr 02:13:01 02:17:55 26° 18° (NNE) 02:22:50 437.500
Gurwin Techsat 1B 30 Apr 02:20:11 02:25:06 39° 283° (WNW) 02:30:02 435.225
ITAMSAT 1 30 Apr 02:25:21 02:30:31 80° 103° (ESE) 02:35:45 435.822/435.867
KKS-1 30 Apr 02:32:39 02:35:44 18° 78° (ENE) 02:38:48 437.445
CUSAT 1 30 Apr 02:32:43 02:40:46 85° 266° (W) 02:48:35 437.405
DANDE 30 Apr 02:42:29 02:50:11 59° 86° (E) 02:58:26 436.750
BEESAT 30 Apr 02:44:39 02:48:14 21° 257° (WSW) 02:51:50 436.000
AO-7 30 Apr 02:50:06 02:57:55 45° 106° (ESE) 03:05:45 29.400- 29.500
PCSat 30 Apr 02:58:50 03:03:51 40° 251° (WSW) 03:08:54 145.827
STARS 30 Apr 02:58:55 03:01:57 18° 78° (ENE) 03:04:58 437.465
JUGNU 30 Apr 03:09:10 03:15:03 58° 201° (SSW) 03:20:54 437.505
MOZHAYETS 4 30 Apr 03:45:26 03:50:03 76° 258° (WSW) 03:54:38
SRMSAT 30 Apr 04:01:22 04:07:17 69° 21° (NNE) 04:13:11 437.500
KKS-1 30 Apr 04:08:49 04:12:02 19° 258° (WSW) 04:15:14 437.445
HORYU 2 30 Apr 04:11:16 04:15:37 62° 102° (ESE) 04:19:59 437.375
BEESAT 3 30 Apr 04:22:23 04:24:48 16° 68° (ENE) 04:27:12 437.485
ISS 30 Apr 04:23:02 04:24:56 15° 126° (SE) 04:26:50 145.825
DANDE 30 Apr 04:27:34 04:32:53 19° 264° (W) 04:38:24 436.750
STARS 30 Apr 04:34:53 04:38:02 19° 258° (WSW) 04:41:12 437.465
AO-7 30 Apr 04:43:58 04:50:18 25° 287° (WNW) 04:56:42 29.400- 29.500
Cosmos 2491 30 Apr 04:48:17 04:53:11 16° 93° (E) 04:58:03 435.465 / 435.565
NOAA 18 30 Apr 04:53:29 04:57:23 20° 104° (ESE) 05:01:19 137.9125
JUGNU 30 Apr 04:59:42 05:04:19 23° 197° (SSW) 05:08:55 437.505
CUTE-I 30 Apr 05:09:31 05:13:27 21° 103° (ESE) 05:17:24 437.470
CUBESAT XI-V 30 Apr 05:21:13 05:25:47 66° 258° (WSW) 05:30:19 437.345
SO-50 30 Apr 05:33:50 05:38:30 55° 112° (ESE) 05:43:16 436.795
SRMSAT 30 Apr 05:50:54 05:56:30 43° 200° (SSW) 06:02:06 437.500
Cubesat XI-IV 30 Apr 05:51:24 05:56:40 69° 103° (ESE) 06:02:00 437.490
LilacSat-2 30 Apr 05:57:32 06:01:18 85° 105° (ESE) 06:05:04 437.200
ISS 30 Apr 05:59:03 06:01:11 16° 306° (NW) 06:03:19 145.825
BEESAT 2 30 Apr 05:59:25 06:03:00 34° 248° (WSW) 06:06:36 435.950
BEESAT 3 30 Apr 05:59:40 06:02:14 17° 248° (WSW) 06:04:49 437.485
NOAA 15 30 Apr 06:01:55 06:07:02 51° 283° (WNW) 06:12:12 137.62
GOMX 1 30 Apr 06:09:46 06:14:41 44° 101° (E) 06:19:18 467.674
BRITE-PL 30 Apr 06:18:21 06:23:50 59° 282° (WNW) 06:29:04 437.365/2234.400
Cosmos 2504 30 Apr 06:20:28 06:24:01 13° 89° (E) 06:27:38 435.465 / 435.565
DOVE 4 30 Apr 06:23:30 06:27:22 25° 101° (E) 06:31:04 437.250
RS-15 30 Apr 06:24:54 06:31:54 17° 66° (ENE) 06:38:45 29.354- 29.394
YUBILEINY 30 Apr 06:26:14 06:34:57 85° 266° (W) 06:43:46 435.215
PHONESAT 2.4 30 Apr 06:30:43 06:33:29 28° 137° (SE) 06:36:14 2401.200-2431.200
NOAA 18 30 Apr 06:33:14 06:37:45 27° 283° (WNW) 06:42:20 137.9125
Cosmos 2491 30 Apr 06:41:01 06:49:37 60° 273° (W) 06:58:14 435.465 / 435.565
CUTE-I 30 Apr 06:48:57 06:53:13 25° 283° (WNW) 06:57:32 437.470
CANX-2 30 Apr 06:50:02 06:51:52 13° 102° (ESE) 06:53:40 2200.000
HO-68 30 Apr 06:51:48 06:57:15 24° 105° (ESE) 07:02:42 435.675
JUGNU 30 Apr 06:52:04 06:54:06 12° 189° (S) 06:56:07 437.505
STRAND 1 30 Apr 06:55:05 07:00:14 89° 60° (ENE) 07:05:20 437.568
M-CUBED/EXP-1 PRIME 30 Apr 06:59:24 07:02:30 29° 286° (WNW) 07:05:28 437.505
AIST 2 30 Apr 07:03:28 07:07:25 48° 68° (ENE) 07:11:24 435.215
CUTE 1.7 + AOD 2 30 Apr 07:21:30 07:25:14 31° 101° (ESE) 07:29:02 437.475
AUBIESAT-1 30 Apr 07:21:38 07:24:03 18° 287° (WNW) 07:26:23 437.475
CINEMA 3 30 Apr 07:30:30 07:34:38 43° 101° (E) 07:38:39 145.822/145.860
SRMSAT 30 Apr 07:42:04 07:46:03 18° 195° (SSW) 07:50:02 437.500
GOMX 1 30 Apr 07:51:36 07:52:20 10° 284° (WNW) 07:53:05 467.674
SEEDS 30 Apr 07:54:19 07:58:29 66° 102° (ESE) 08:02:40 437.485
DOVE 4 30 Apr 08:01:50 08:04:45 16° 283° (WNW) 08:07:35 437.250
COMPASS 1 30 Apr 08:03:50 08:07:54 58° 101° (E) 08:12:03 437.405
PHONESAT 2.4 30 Apr 08:08:49 08:10:14 12° 318° (NW) 08:11:38 2401.200-2431.200
Cosmos 2504 30 Apr 08:08:50 08:16:48 67° 267° (W) 08:25:24 435.465 / 435.565
PRISM 30 Apr 08:13:35 08:17:31 50° 258° (WSW) 08:21:27 437.425
CANX-2 30 Apr 08:23:59 08:27:26 25° 281° (WNW) 08:30:55 2200.000
Oscar 11 30 Apr 08:29:50 08:33:38 31° 102° (ESE) 08:37:28 145.826/435.025
RS-15 30 Apr 08:31:59 08:44:17 79° 250° (WSW) 08:56:09 29.354- 29.394
FUNcube-1 30 Apr 08:36:52 08:40:25 28° 102° (ESE) 08:44:00 145.935
AAUSAT CUBESAT 2 30 Apr 08:37:55 08:41:58 55° 281° (WNW) 08:46:04 437.432
HO-68 30 Apr 08:38:10 08:44:37 38° 284° (WNW) 08:51:08 435.675
UWE-3 30 Apr 08:38:47 08:42:51 58° 101° (ESE) 08:46:56 435.000/436.395/437.385
CUBEBUG 2 30 Apr 08:39:20 08:43:30 82° 281° (WNW) 08:47:38 437.445
DELFI C3 30 Apr 08:44:06 08:46:55 19° 102° (ESE) 08:49:45 145.870
HUMSAT D 30 Apr 09:13:35 09:16:17 17° 102° (ESE) 09:19:01 437.325/437.525
ZACube-1 30 Apr 09:16:49 09:20:53 61° 281° (W) 09:24:59 437.345
UNISAT 6 30 Apr 09:18:30 09:22:04 21° 78° (ENE) 09:25:36 437.425
SRMSAT 30 Apr 09:35:07 09:36:09 10° 185° (S) 09:37:12 437.500
TIGRISAT 30 Apr 09:36:26 09:40:43 35° 78° (ENE) 09:44:57 435.000
ANTELSAT 30 Apr 09:59:38 10:04:22 79° 77° (ENE) 10:09:03 437.575/2403.000
ESTCUBE 1 30 Apr 10:05:19 10:07:05 12° 102° (ESE) 10:08:52 437.505/2401.250
Oscar 11 30 Apr 10:09:23 10:09:31 10° 282° (WNW) 10:09:38 145.826/435.025
DELFI C3 30 Apr 10:19:17 10:21:32 15° 281° (WNW) 10:23:48 145.870
JUGNU 30 Apr 10:31:05 10:34:20 15° 168° (SSE) 10:37:36 437.505
QB50P2 30 Apr 10:33:43 10:37:25 29° 78° (ENE) 10:41:07 145.880/145.840
POLYITAN 1 30 Apr 10:35:47 10:39:31 29° 78° (ENE) 10:43:16 437.675
DUCHIFAT 1 30 Apr 10:37:55 10:41:31 27° 78° (ENE) 10:45:07 145.980
POPSAT HIP 1 30 Apr 10:39:12 10:43:01 32° 78° (ENE) 10:46:48 437.405
QB50P1 30 Apr 10:42:37 10:46:33 36° 78° (ENE) 10:50:28 145.935-145.965
CUBEBUG 1 30 Apr 10:43:32 10:47:15 27° 102° (ESE) 10:50:57 437.445
HUMSAT D 30 Apr 10:49:05 10:51:40 16° 281° (WNW) 10:54:16 437.325/437.525
50 SAT 30 Apr 10:50:12 10:53:40 40° 102° (ESE) 10:57:10 437.505
AO-85 30 Apr 10:54:13 10:59:01 42° 111° (ESE) 11:04:04 145.980
UNISAT 6 30 Apr 10:55:10 10:58:29 19° 258° (WSW) 11:01:48 437.425
AIST 1 30 Apr 10:58:25 11:01:13 17° 86° (E) 11:04:02
VELOX 1 30 Apr 11:01:48 11:06:06 51° 102° (ESE) 11:10:25 145.980
DX 1 30 Apr 11:09:37 11:13:54 58° 102° (ESE) 11:18:11 434.975-435.025
TIGRISAT 30 Apr 11:15:35 11:17:05 11° 258° (WSW) 11:18:37 435.000
NANOSAT C BR1 30 Apr 11:18:54 11:23:08 66° 258° (WSW) 11:27:22 145.865
UKube-1 30 Apr 11:21:52 11:26:10 68° 103° (ESE) 11:30:28 .
SRMSAT 30 Apr 11:25:19 11:26:32 11° 174° (S) 11:27:46 437.500
BUGSAT 1 30 Apr 11:32:23 11:36:31 68° 77° (ENE) 11:40:40 437.445
AISAT 30 Apr 11:33:25 11:37:43 51° 282° (WNW) 11:42:02 437.250
ESTCUBE 1 30 Apr 11:39:40 11:43:37 30° 282° (WNW) 11:47:36 437.505/2401.250
SPROUT 30 Apr 11:57:35 12:01:50 89° 282° (WNW) 12:06:07 437.525
GONETS M04 30 Apr 12:10:05 12:18:46 79° 267° (W) 12:27:28
Oscar 19 30 Apr 12:11:15 12:14:33 17° 77° (ENE) 12:17:50 437.125/150
QB50P2 30 Apr 12:11:48 12:12:57 11° 258° (WSW) 12:14:05 145.880/145.840
POLYITAN 1 30 Apr 12:14:01 12:15:03 11° 258° (WSW) 12:16:05 437.675
DUCHIFAT 1 30 Apr 12:15:29 12:16:56 12° 258° (WSW) 12:18:24 145.980
JUGNU 30 Apr 12:18:38 12:23:51 33° 161° (SSE) 12:29:04 437.505
CUBEBUG 1 30 Apr 12:21:18 12:23:16 13° 282° (WNW) 12:25:13 437.445
Cosmos 2499 30 Apr 12:24:07 12:32:18 69° 87° (E) 12:41:02 435.465 / 435.565
AIST 1 30 Apr 12:35:31 12:38:32 18° 266° (W) 12:41:34
AO-85 30 Apr 12:37:01 12:39:23 13° 294° (WNW) 12:41:48 145.980
TISAT 1 30 Apr 12:43:09 12:47:20 86° 99° (E) 12:51:31 437.305
SWISSCUBE 30 Apr 12:56:10 12:59:00 16° 103° (ESE) 13:01:49 437.505
JAS-2 30 Apr 13:05:50 13:10:59 61° 258° (WSW) 13:16:31 435.910
SRMSAT 30 Apr 13:12:32 13:16:38 19° 165° (SSE) 13:20:45 437.500
